User: anonymous   Login
Location: Unspecified
(0.0000°N, 0.0000°E)
Time: 16:39:33
(UTC+00:00)
Language:

APRIZESAT 3 - Orbit

View from above orbital plane
View from above orbital plane
View from above satellite
View from above satellite

Ground track
Ground track

The orbit data is extracted from the following two-line orbital elements,

1 35686U 09041F   15060.39365236  .00001388  00000-0  15799-3 0  9995
2 35686 098.1837 018.3761 0073672 219.4031 256.7246 14.86071561302564
Epoch (UTC): 01 March 2015 09:26:51
Eccentricity: 0.0073672
inclination: 98.1837°
perigee height: 559 km
apogee height: 662 km
right ascension of ascending node: 18.3761°
argument of perigee: 219.4031°
revolutions per day: 14.86071561
mean anomaly at epoch: 256.7246°
orbit number at epoch: 30256

The dashed part of the orbit path shows where the satellite is in the earth's shadow,  

DLR